Time,TemperatureF,DewpointF,PressureIn,WindDirection,WindDirectionDegrees,WindSpeedMPH,WindSpeedGustMPH,Humidity,HourlyPrecipIn,Conditions,Clouds,dailyrainin,SoftwareType,DateUTC
2013-01-09 00:03:00,29.0,26.0,-100.00,North,355,0.0,2.0,88,0.00,,,-99.99,,2013-01-09 05:03:00,
2013-01-09 00:12:00,29.0,26.0,-100.00,NW,315,0.0,1.0,88,0.00,,,-99.99,,2013-01-09 05:12:00,
2013-01-09 00:22:00,29.0,26.0,-100.00,WNW,300,0.0,1.0,87,0.00,,,-99.99,,2013-01-09 05:22:00,
2013-01-09 00:33:00,29.0,25.0,-100.00,WNW,300,0.0,2.0,88,0.00,,,-99.99,,2013-01-09 05:33:00,
2013-01-09 00:42:00,28.0,25.0,-100.00,NW,305,0.0,1.0,89,0.00,,,-99.99,,2013-01-09 05:42:00,
2013-01-09 00:52:00,28.0,25.0,-100.00,NW,305,0.0,1.0,89,0.00,,,-99.99,,2013-01-09 05:52:00,
2013-01-09 01:02:00,28.0,25.0,-100.00,WNW,300,0.0,1.0,89,0.00,,,-99.99,,2013-01-09 06:02:00,
2013-01-09 01:12:00,27.0,25.0,-100.00,NW,320,0.0,2.0,89,0.00,,,-99.99,,2013-01-09 06:12:00,
2013-01-09 01:22:00,28.0,25.0,-100.00,WNW,295,0.0,2.0,90,0.00,,,-99.99,,2013-01-09 06:22:00,
2013-01-09 01:32:00,27.0,25.0,-100.00,NW,305,0.0,2.0,90,0.00,,,-99.99,,2013-01-09 06:32:00,
2013-01-09 01:42:00,27.0,25.0,-100.00,WNW,295,0.0,1.0,91,0.00,,,-99.99,,2013-01-09 06:42:00,
2013-01-09 01:52:00,27.0,25.0,-100.00,WNW,295,0.0,0.0,91,0.00,,,-99.99,,2013-01-09 06:52:00,
2013-01-09 02:02:00,27.0,24.0,-100.00,NW,325,0.0,0.0,91,0.00,,,-99.99,,2013-01-09 07:02:00,
2013-01-09 02:12:00,27.0,25.0,-100.00,North,5,0.0,0.0,91,0.00,,,-99.99,,2013-01-09 07:12:00,
2013-01-09 02:22:00,28.0,26.0,-100.00,NE,40,0.0,0.0,91,0.00,,,-99.99,,2013-01-09 07:22:00,
2013-01-09 02:32:00,28.0,25.0,-100.00,ESE,115,0.0,1.0,90,0.00,,,-99.99,,2013-01-09 07:32:00,
2013-01-09 02:42:00,28.0,25.0,-100.00,East,85,0.0,0.0,91,0.00,,,-99.99,,2013-01-09 07:42:00,
2013-01-09 02:52:00,27.0,25.0,-100.00,West,275,0.0,0.0,90,0.00,,,-99.99,,2013-01-09 07:52:00,
2013-01-09 03:02:00,27.0,24.0,-100.00,WNW,290,1.0,2.0,90,0.00,,,-99.99,,2013-01-09 08:02:00,
2013-01-09 03:12:00,27.0,24.0,-100.00,NW,305,0.0,1.0,91,0.00,,,-99.99,,2013-01-09 08:12:00,
2013-01-09 03:22:00,27.0,25.0,-100.00,NE,50,0.0,1.0,91,0.00,,,-99.99,,2013-01-09 08:22:00,
2013-01-09 03:32:00,27.0,24.0,-100.00,WNW,300,1.0,1.0,90,0.00,,,-99.99,,2013-01-09 08:32:00,
2013-01-09 03:42:00,27.0,25.0,-100.00,NW,315,0.0,1.0,90,0.00,,,-99.99,,2013-01-09 08:42:00,
2013-01-09 03:52:00,28.0,25.0,-100.00,West,275,0.0,1.0,90,0.00,,,-99.99,,2013-01-09 08:52:00,
2013-01-09 04:02:00,28.0,26.0,-100.00,North,0,0.0,1.0,90,0.00,,,-99.99,,2013-01-09 09:02:00,
2013-01-09 04:12:00,29.0,26.0,-100.00,WNW,290,1.0,1.0,89,0.00,,,-99.99,,2013-01-09 09:12:00,
2013-01-09 04:22:00,29.0,26.0,-100.00,West,280,0.0,2.0,88,0.00,,,-99.99,,2013-01-09 09:22:00,
2013-01-09 04:32:00,30.0,27.0,-100.00,NNW,330,0.0,1.0,87,0.00,,,-99.99,,2013-01-09 09:32:00,
2013-01-09 04:42:00,30.0,26.0,-100.00,North,350,0.0,1.0,87,0.00,,,-99.99,,2013-01-09 09:42:00,
2013-01-09 04:53:00,30.0,26.0,-100.00,NW,305,0.0,0.0,87,0.00,,,-99.99,,2013-01-09 09:53:00,
2013-01-09 05:02:00,30.0,27.0,-100.00,WNW,290,0.0,1.0,86,0.00,,,-99.99,,2013-01-09 10:02:00,
2013-01-09 05:12:00,31.0,27.0,-100.00,West,280,1.0,1.0,84,0.00,,,-99.99,,2013-01-09 10:12:00,
2013-01-09 05:22:00,33.0,28.0,-100.00,South,180,1.0,2.0,81,0.00,,,-99.99,,2013-01-09 10:22:00,
2013-01-09 05:32:00,35.0,28.0,-100.00,South,190,3.0,6.0,75,0.00,,,-99.99,,2013-01-09 10:32:00,
2013-01-09 05:42:00,37.0,29.0,-100.00,SSW,205,4.0,5.0,73,0.00,,,-99.99,,2013-01-09 10:42:00,
2013-01-09 05:52:00,38.0,30.0,-100.00,SSW,200,4.0,6.0,71,0.00,,,-99.99,,2013-01-09 10:52:00,
2013-01-09 06:02:00,40.0,31.0,-100.00,SSW,195,5.0,7.0,70,0.00,,,-99.99,,2013-01-09 11:02:00,
2013-01-09 06:12:00,40.0,31.0,-100.00,SSW,205,4.0,7.0,70,0.00,,,-99.99,,2013-01-09 11:12:00,
2013-01-09 06:22:00,40.0,32.0,-100.00,SW,225,4.0,7.0,71,0.00,,,-99.99,,2013-01-09 11:22:00,
2013-01-09 06:33:00,40.0,32.0,-100.00,SSW,210,5.0,7.0,73,0.00,,,-99.99,,2013-01-09 11:33:00,
2013-01-09 06:42:00,40.0,33.0,-100.00,SW,215,6.0,8.0,75,0.00,,,-99.99,,2013-01-09 11:42:00,
2013-01-09 06:52:00,40.0,33.0,-100.00,SSW,210,4.0,6.0,75,0.00,,,-99.99,,2013-01-09 11:52:00,
2013-01-09 07:03:00,40.0,33.0,-100.00,SSW,210,4.0,6.0,76,0.00,,,-99.99,,2013-01-09 12:03:00,
2013-01-09 07:12:00,40.0,34.0,-100.00,SSW,210,6.0,6.0,76,0.00,,,-99.99,,2013-01-09 12:12:00,
2013-01-09 07:23:00,41.0,34.0,-100.00,SW,215,6.0,9.0,77,0.00,,,-99.99,,2013-01-09 12:23:00,
2013-01-09 07:33:00,41.0,34.0,-100.00,SW,220,6.0,9.0,76,0.00,,,-99.99,,2013-01-09 12:33:00,
2013-01-09 07:43:00,42.0,35.0,-100.00,SSW,200,6.0,9.0,75,0.00,,,-99.99,,2013-01-09 12:43:00,
2013-01-09 07:52:00,42.0,35.0,-100.00,SW,215,6.0,7.0,74,0.00,,,-99.99,,2013-01-09 12:52:00,
2013-01-09 08:03:00,43.0,35.0,-100.00,SSW,205,4.0,8.0,73,0.00,,,-99.99,,2013-01-09 13:03:00,
2013-01-09 08:12:00,43.0,35.0,-100.00,SW,225,4.0,7.0,73,0.00,,,-99.99,,2013-01-09 13:12:00,
2013-01-09 08:23:00,44.0,35.0,-100.00,SW,220,6.0,12.0,70,0.00,,,-99.99,,2013-01-09 13:23:00,
2013-01-09 08:33:00,45.0,36.0,-100.00,SW,220,8.0,13.0,70,0.00,,,-99.99,,2013-01-09 13:33:00,
2013-01-09 08:43:00,45.0,36.0,-100.00,WSW,245,8.0,14.0,70,0.00,,,-99.99,,2013-01-09 13:43:00,
2013-01-09 08:52:00,45.0,36.0,-100.00,WSW,240,9.0,12.0,70,0.00,,,-99.99,,2013-01-09 13:52:00,
2013-01-09 09:03:00,45.0,36.0,-100.00,WSW,250,10.0,16.0,70,0.00,,,-99.99,,2013-01-09 14:03:00,
2013-01-09 09:12:00,44.0,37.0,-100.00,WSW,240,12.0,19.0,75,2.24,,,-99.99,,2013-01-09 14:12:00,
2013-01-09 09:23:00,43.0,37.0,-100.00,SW,235,9.0,15.0,80,1.10,,,-99.99,,2013-01-09 14:23:00,
2013-01-09 09:33:00,43.0,38.0,-100.00,SW,225,10.0,13.0,82,1.69,,,-99.99,,2013-01-09 14:33:00,
2013-01-09 09:43:00,42.0,38.0,-100.00,SW,235,7.0,12.0,84,0.55,,,-99.99,,2013-01-09 14:43:00,
2013-01-09 09:53:00,42.0,38.0,-100.00,WSW,245,8.0,11.0,86,2.83,,,-99.99,,2013-01-09 14:53:00,
2013-01-09 10:03:00,42.0,38.0,-100.00,SW,230,6.0,9.0,88,0.55,,,-99.99,,2013-01-09 15:03:00,
2013-01-09 10:12:00,42.0,39.0,-100.00,WSW,250,6.0,11.0,90,3.39,,,-99.99,,2013-01-09 15:12:00,
2013-01-09 10:23:00,41.0,39.0,-100.00,SW,235,7.0,10.0,90,5.08,,,-99.99,,2013-01-09 15:23:00,
2013-01-09 10:33:00,41.0,39.0,-100.00,WSW,240,7.0,12.0,91,0.00,,,-99.99,,2013-01-09 15:33:00,
2013-01-09 10:42:00,42.0,40.0,-100.00,SW,235,9.0,13.0,92,0.00,,,-99.99,,2013-01-09 15:42:00,
2013-01-09 10:53:00,42.0,40.0,-100.00,SW,235,9.0,16.0,91,0.00,,,-99.99,,2013-01-09 15:53:00,
2013-01-09 11:03:00,42.0,39.0,-100.00,SW,235,9.0,14.0,90,0.00,,,-99.99,,2013-01-09 16:03:00,
2013-01-09 11:12:00,42.0,39.0,-100.00,WSW,240,11.0,16.0,89,0.00,,,-99.99,,2013-01-09 16:12:00,
2013-01-09 11:23:00,42.0,39.0,-100.00,WSW,245,7.0,16.0,88,0.00,,,-99.99,,2013-01-09 16:23:00,
2013-01-09 11:33:00,42.0,39.0,-100.00,SW,235,11.0,12.0,87,0.00,,,-99.99,,2013-01-09 16:33:00,
2013-01-09 11:43:00,42.0,39.0,-100.00,WSW,240,11.0,16.0,87,0.00,,,-99.99,,2013-01-09 16:43:00,
2013-01-09 11:52:00,42.0,39.0,-100.00,WSW,245,12.0,15.0,87,0.00,,,-99.99,,2013-01-09 16:52:00,
2013-01-09 12:03:00,43.0,39.0,-100.00,WSW,240,13.0,18.0,86,0.00,,,-99.99,,2013-01-09 17:03:00,
2013-01-09 12:12:00,42.0,39.0,-100.00,SW,235,12.0,18.0,86,0.00,,,-99.99,,2013-01-09 17:12:00,
2013-01-09 12:23:00,42.0,39.0,-100.00,WSW,245,14.0,20.0,86,0.00,,,-99.99,,2013-01-09 17:23:00,
2013-01-09 12:33:00,43.0,39.0,-100.00,WSW,250,12.0,17.0,86,0.00,,,-99.99,,2013-01-09 17:33:00,
2013-01-09 12:43:00,43.0,39.0,-100.00,WSW,240,13.0,17.0,85,0.00,,,-99.99,,2013-01-09 17:43:00,
2013-01-09 12:53:00,43.0,39.0,-100.00,WSW,240,12.0,17.0,85,0.00,,,-99.99,,2013-01-09 17:53:00,
2013-01-09 13:03:00,44.0,39.0,-100.00,WSW,245,9.0,17.0,84,0.00,,,-99.99,,2013-01-09 18:03:00,
2013-01-09 13:12:00,44.0,39.0,-100.00,WSW,240,10.0,15.0,83,0.00,,,-99.99,,2013-01-09 18:12:00,
2013-01-09 13:24:00,44.0,39.0,-100.00,WSW,250,12.0,16.0,82,0.00,,,-99.99,,2013-01-09 18:24:00,
2013-01-09 13:33:00,44.0,39.0,-100.00,WSW,245,10.0,19.0,82,0.00,,,-99.99,,2013-01-09 18:33:00,
2013-01-09 13:43:00,44.0,39.0,-100.00,WSW,245,10.0,16.0,82,0.00,,,-99.99,,2013-01-09 18:43:00,
2013-01-09 13:53:00,44.0,39.0,-100.00,WSW,240,9.0,15.0,81,0.00,,,-99.99,,2013-01-09 18:53:00,
2013-01-09 14:03:00,44.0,39.0,-100.00,SW,235,10.0,13.0,81,0.00,,,-99.99,,2013-01-09 19:03:00,
2013-01-09 14:13:00,45.0,39.0,-100.00,WSW,240,9.0,12.0,80,0.00,,,-99.99,,2013-01-09 19:13:00,
2013-01-09 14:23:00,45.0,39.0,-100.00,WSW,240,9.0,12.0,79,0.00,,,-99.99,,2013-01-09 19:23:00,
2013-01-09 14:33:00,45.0,39.0,-100.00,SW,235,9.0,12.0,79,0.00,,,-99.99,,2013-01-09 19:33:00,
2013-01-09 14:43:00,46.0,39.0,-100.00,WSW,245,7.0,11.0,78,0.00,,,-99.99,,2013-01-09 19:43:00,
2013-01-09 14:52:00,46.0,39.0,-100.00,WSW,240,9.0,11.0,77,0.00,,,-99.99,,2013-01-09 19:52:00,
2013-01-09 15:03:00,46.0,39.0,-100.00,SW,235,7.0,11.0,76,0.00,,,-99.99,,2013-01-09 20:03:00,
2013-01-09 15:12:00,46.0,39.0,-100.00,SW,235,8.0,12.0,74,0.00,,,-99.99,,2013-01-09 20:12:00,
2013-01-09 15:23:00,47.0,38.0,-100.00,WSW,240,8.0,11.0,73,0.00,,,-99.99,,2013-01-09 20:23:00,
2013-01-09 15:33:00,47.0,38.0,-100.00,WSW,245,9.0,13.0,73,0.00,,,-99.99,,2013-01-09 20:33:00,
2013-01-09 15:43:00,47.0,38.0,-100.00,WSW,240,9.0,13.0,71,0.00,,,-99.99,,2013-01-09 20:43:00,
2013-01-09 15:53:00,46.0,38.0,-100.00,WSW,240,9.0,12.0,72,0.00,,,-99.99,,2013-01-09 20:53:00,
2013-01-09 16:03:00,46.0,38.0,-100.00,WSW,240,11.0,14.0,72,0.00,,,-99.99,,2013-01-09 21:03:00,
2013-01-09 16:13:00,46.0,37.0,-100.00,WSW,240,9.0,13.0,72,0.00,,,-99.99,,2013-01-09 21:13:00,
2013-01-09 16:23:00,46.0,37.0,-100.00,SW,235,10.0,12.0,72,0.00,,,-99.99,,2013-01-09 21:23:00,
2013-01-09 16:33:00,45.0,37.0,-100.00,SW,235,7.0,12.0,73,0.00,,,-99.99,,2013-01-09 21:33:00,
2013-01-09 16:43:00,45.0,37.0,-100.00,SW,235,8.0,12.0,73,0.00,,,-99.99,,2013-01-09 21:43:00,
2013-01-09 16:52:00,45.0,37.0,-100.00,WSW,240,9.0,16.0,72,0.00,,,-99.99,,2013-01-09 21:52:00,
2013-01-09 17:03:00,45.0,37.0,-100.00,SW,235,9.0,13.0,73,0.00,,,-99.99,,2013-01-09 22:03:00,
2013-01-09 17:12:00,45.0,37.0,-100.00,SW,230,9.0,12.0,74,0.00,,,-99.99,,2013-01-09 22:12:00,
2013-01-09 17:23:00,44.0,37.0,-100.00,WSW,250,6.0,9.0,76,0.00,,,-99.99,,2013-01-09 22:23:00,
2013-01-09 17:33:00,44.0,37.0,-100.00,WSW,255,7.0,11.0,76,0.00,,,-99.99,,2013-01-09 22:33:00,
2013-01-09 17:43:00,43.0,37.0,-100.00,WSW,250,7.0,12.0,77,0.00,,,-99.99,,2013-01-09 22:43:00,
2013-01-09 17:52:00,43.0,37.0,-100.00,West,265,5.0,7.0,78,0.00,,,-99.99,,2013-01-09 22:52:00,
2013-01-09 18:03:00,42.0,37.0,-100.00,WSW,250,4.0,7.0,79,0.00,,,-99.99,,2013-01-09 23:03:00,
2013-01-09 18:13:00,42.0,37.0,-100.00,West,265,4.0,6.0,80,0.00,,,-99.99,,2013-01-09 23:13:00,
2013-01-09 18:22:00,42.0,37.0,-100.00,West,275,4.0,6.0,80,0.00,,,-99.99,,2013-01-09 23:22:00,
2013-01-09 18:33:00,42.0,36.0,-100.00,WSW,250,4.0,6.0,80,0.00,,,-99.99,,2013-01-09 23:33:00,
2013-01-09 18:43:00,42.0,37.0,-100.00,WSW,245,3.0,6.0,81,0.00,,,-99.99,,2013-01-09 23:43:00,
2013-01-09 18:52:00,42.0,37.0,-100.00,WSW,255,4.0,6.0,81,0.00,,,-99.99,,2013-01-09 23:52:00,
2013-01-09 19:03:00,42.0,36.0,-100.00,WSW,250,4.0,7.0,81,0.00,,,-99.99,,2013-01-10 00:03:00,
2013-01-09 19:12:00,42.0,36.0,-100.00,West,270,3.0,6.0,81,0.00,,,-99.99,,2013-01-10 00:12:00,
2013-01-09 19:22:00,41.0,36.0,-100.00,WSW,255,4.0,7.0,80,0.00,,,-99.99,,2013-01-10 00:22:00,
2013-01-09 19:32:00,42.0,36.0,-100.00,West,260,4.0,7.0,79,0.00,,,-99.99,,2013-01-10 00:32:00,
2013-01-09 19:42:00,41.0,35.0,-100.00,WSW,245,4.0,7.0,79,0.00,,,-99.99,,2013-01-10 00:42:00,
2013-01-09 19:52:00,40.0,35.0,-100.00,WSW,255,4.0,7.0,79,0.00,,,-99.99,,2013-01-10 00:52:00,
2013-01-09 20:02:00,41.0,34.0,-100.00,West,260,5.0,7.0,77,0.00,,,-99.99,,2013-01-10 01:02:00,
2013-01-09 20:12:00,41.0,34.0,-100.00,West,265,4.0,7.0,76,0.00,,,-99.99,,2013-01-10 01:12:00,
2013-01-09 20:22:00,40.0,34.0,-100.00,WSW,250,4.0,6.0,77,0.00,,,-99.99,,2013-01-10 01:22:00,
2013-01-09 20:33:00,40.0,33.0,-100.00,WSW,250,4.0,6.0,78,0.00,,,-99.99,,2013-01-10 01:33:00,
2013-01-09 20:43:00,39.0,33.0,-100.00,SW,235,5.0,7.0,79,0.00,,,-99.99,,2013-01-10 01:43:00,
2013-01-09 20:52:00,40.0,33.0,-100.00,WSW,240,4.0,7.0,77,0.00,,,-99.99,,2013-01-10 01:52:00,
2013-01-09 21:03:00,40.0,33.0,-100.00,SW,235,4.0,6.0,76,0.00,,,-99.99,,2013-01-10 02:03:00,
2013-01-09 21:12:00,40.0,33.0,-100.00,WSW,240,5.0,7.0,75,0.00,,,-99.99,,2013-01-10 02:12:00,
2013-01-09 21:22:00,39.0,32.0,-100.00,SW,225,6.0,8.0,76,0.00,,,-99.99,,2013-01-10 02:22:00,
2013-01-09 21:32:00,39.0,32.0,-100.00,SW,225,4.0,7.0,75,0.00,,,-99.99,,2013-01-10 02:32:00,
2013-01-09 21:42:00,39.0,32.0,-100.00,SW,225,4.0,7.0,75,0.00,,,-99.99,,2013-01-10 02:42:00,
2013-01-09 21:52:00,39.0,32.0,-100.00,SW,225,4.0,7.0,75,0.00,,,-99.99,,2013-01-10 02:52:00,
2013-01-09 22:03:00,39.0,31.0,-100.00,WSW,245,4.0,9.0,73,0.00,,,-99.99,,2013-01-10 03:03:00,
2013-01-09 22:12:00,39.0,31.0,-100.00,SW,230,6.0,8.0,74,0.00,,,-99.99,,2013-01-10 03:12:00,
2013-01-09 22:22:00,38.0,31.0,-100.00,WSW,250,4.0,7.0,75,0.00,,,-99.99,,2013-01-10 03:22:00,
2013-01-09 22:33:00,38.0,31.0,-100.00,WSW,240,4.0,7.0,76,0.00,,,-99.99,,2013-01-10 03:33:00,
2013-01-09 22:42:00,38.0,31.0,-100.00,West,270,3.0,6.0,75,0.00,,,-99.99,,2013-01-10 03:42:00,
2013-01-09 22:52:00,37.0,31.0,-100.00,West,265,2.0,5.0,77,0.00,,,-99.99,,2013-01-10 03:52:00,
2013-01-09 23:02:00,37.0,31.0,-100.00,WSW,250,3.0,5.0,77,0.00,,,-99.99,,2013-01-10 04:02:00,
2013-01-09 23:12:00,37.0,31.0,-100.00,WSW,240,3.0,4.0,77,0.00,,,-99.99,,2013-01-10 04:12:00,
2013-01-09 23:22:00,37.0,30.0,-100.00,WSW,240,4.0,5.0,78,0.00,,,-99.99,,2013-01-10 04:22:00,
2013-01-09 23:32:00,37.0,31.0,-100.00,WSW,245,3.0,5.0,79,0.00,,,-99.99,,2013-01-10 04:32:00,
2013-01-09 23:42:00,37.0,31.0,-100.00,SW,235,2.0,4.0,76,0.00,,,-99.99,,2013-01-10 04:42:00,
2013-01-09 23:52:00,37.0,30.0,-100.00,WSW,240,2.0,3.0,77,0.00,,,-99.99,,2013-01-10 04:52:00,